Location: Unspecified
(35.7250°N, 0.0000°E)
Time: 02:58:42
(UTC+00:00)

Vanguard 1 Rocket - Pass Details

Date: 17 June 2019
Orbit: 650 x 4226 km, 34.3° (Epoch: 12 October)

Event Time Altitude Azimuth Distance (km) Brightness Sun altitude
Rises 16:04:38 0° 217° (SW) 8,032 12.6 36.4°
Reaches altitude 10° 16:11:26 10° 210° (SSW) 6,570 12.2 35.1°
Maximum altitude 16:27:39 35° 154° (SSE) 3,368 10.3 31.8°
Drops below altitude 10° 16:37:00 10° 92° (E) 3,837 10.1 29.9°
Sets 16:39:46 0° 83° (E) 4,460 10.4 29.4°
